Flag for Cameroon Weather past 2 weeks in Bamenda, Cameroon

Now
82 °F

Thunderstorms. Partly sunny.


Feels Like: 89 °F
Forecast: 61 / 78 °F
Wind: 5 mph from Southwest

Location: Douala Obs.

Current Time: Sep 23, 2014 at 12:08:24 PM

Latest Report: Sep 23, 2014 at 11:00 AM


Visibility: N/A

Pressure: 29.95 "Hg

Humidity: 79%

Dew point: 75 °F

Location of BamendaLocation

Historic Weather in Bamenda — Graph

°F

Bamenda temperature yesterday

Maximum temperature yesterday: 86 °F (at 1:00 PM)
Minimum temperature yesterday: 75 °F (at 6:00 AM)
Average temperature yesterday: 80 °F

Past Weeks' High & Low Weather Summary

 TemperatureHumidityPressure
High90 °F (Sep 12, 1:00 PM)100% (Sep 9, 12:00 AM)30.01 "Hg (Sep 9, 12:00 AM)
Low73 °F (Sep 17, 3:00 AM)59% (Sep 14, 3:00 PM)29.80 "Hg (Sep 10, 5:00 PM)
Average79 °F88%29.90 "Hg
* Reported Sep 8 11:00 AM — Sep 23 11:00 AM, Bamenda, Weather by CustomWeather, © 2014

Note: Actual official high and low records may vary slightly from our data, if they occured in-between our weather recording intervals... More about our weather records

Advertising

Bamenda weather history for previous 24 hours

 ConditionsComfort  
Time TempWeatherWind HumidityBarometerVisibility
11:00 AM
Sep 23
82 °FThunderstorms. Partly sunny.5 mph79%29.95 "HgN/A
10:00 AM81 °FThunderstorms. Broken clouds.7 mph84%29.95 "HgN/A
9:00 AM79 °FThunderstorms. Broken clouds.No wind89%29.95 "HgN/A
8:00 AM77 °FThunderstorms. Cloudy.No wind94%29.92 "HgN/A
7:00 AM77 °FThunderstorms. Broken clouds.No wind94%29.92 "Hg4 mi
6:00 AM77 °FThunderstorms. Partly cloudy.No wind100%29.92 "HgN/A
5:00 AM77 °FThunderstorms. Passing clouds.No wind100%29.89 "HgN/A
4:00 AM77 °FThunderstorms. Passing clouds.No wind94%29.86 "HgN/A
3:00 AM77 °FThunderstorms. Passing clouds.No wind94%29.86 "HgN/A
2:00 AM77 °FThunderstorms. Passing clouds.No wind94%29.86 "HgN/A
1:00 AM77 °FThunderstorms. Passing clouds.No wind94%29.89 "HgN/A
12:00 AM77 °FThunderstorms. Passing clouds.No wind94%29.89 "HgN/A
11:00 PM
Sep 22
77 °FThundershowers. Passing clouds.No wind94%29.92 "Hg5 mi
10:00 PM79 °FThundershowers. Passing clouds.No wind94%29.89 "Hg5 mi
9:00 PM79 °FThunderstorms. Passing clouds.No wind94%29.86 "HgN/A
8:00 PM79 °FThunderstorms. Passing clouds.No wind89%29.86 "HgN/A
7:00 PM81 °FThunderstorms. Partly cloudy.7 mph84%29.83 "HgN/A
6:00 PM81 °FThunderstorms. Broken clouds.5 mph84%29.83 "HgN/A
5:00 PM82 °FThunderstorms. Broken clouds.12 mph79%29.83 "HgN/A
4:00 PM84 °FBroken clouds.12 mph74%29.83 "HgN/A
3:00 PM84 °FPartly sunny.12 mph79%29.83 "HgN/A
2:00 PM84 °FPartly sunny.12 mph79%29.83 "HgN/A
1:00 PM86 °FPartly sunny.9 mph70%29.86 "HgN/A
12:00 PM84 °FPartly sunny.12 mph79%29.92 "HgN/A
Weather by CustomWeather, © 2014

See weather overviewHow to use our weather pages